Temperature
11 11 11 11 11 11 11 11 11 11 11 11 11 10 10 10 10 10 10 10 10 10 9 9 9 8 8 8 7 6 6 5 4 4 4 4 4 4 4 3 3 3 3
10 10 10 10 10 10 10 10 10 10 10 10 10 10 10 10 10 10 9 9 9 9 9 8 8 8 7 7 6 6 5 5 4 3 3 3 3 3 3 3 3 3 2
9 9 10 10 10 10 10 10 10 10 9 9 9 9 9 9 9 9 9 9 9 8 8 8 7 7 6 6 5 5 4 4 4 3 3 3 3 3 2 2 2 2 2
8 9 9 9 9 9 9 9 9 9 9 9 9 9 8 8 8 8 8 8 8 7 7 7 7 6 5 5 4 4 4 3 3 3 2 2 2 2 2 2 2 2 2
8 8 8 8 8 8 8 8 8 8 8 8 8 8 8 8 8 8 7 7 7 7 6 6 5 5 5 4 4 3 3 3 2 2 2 2 2 2 2 2 1 1 1
7 7 7 7 7 7 7 7 7 7 7 7 7 7 7 7 7 7 7 7 6 6 5 5 5 4 4 3 3 3 2 2 2 2 2 2 2 1 1 1 1 1 1
6 7 7 7 7 7 7 7 7 6 6 6 6 6 6 6 6 6 6 6 5 5 5 4 4 4 3 3 2 2 2 2 2 1 1 1 1 1 1 1 1 1 0
6 6 6 6 6 6 6 6 6 6 6 6 6 5 6 6 5 5 5 5 5 4 4 4 3 3 3 2 2 2 1 1 1 1 1 1 1 1 1 1 0 0 0
5 5 5 5 5 5 5 5 5 5 5 5 5 5 5 5 5 5 5 4 4 4 3 3 3 2 2 2 1 1 1 1 1 0 0 0 0 0 0 0 0 -0 -0
4 4 4 4 4 4 4 4 4 4 4 4 4 4 4 4 4 4 4 4 3 3 3 2 2 1 1 1 1 0 0 0 0 -0 -0 -0 -0 -0 -0 -0 -1 -1 -1
3 4 4 4 4 4 4 4 4 3 4 4 4 4 4 4 3 3 3 3 3 2 2 2 1 1 1 0 0 -0 -0 -1 -1 -1 -1 -1 -1 -1 -1 -1 -1 -1 -1
3 3 3 3 3 3 3 3 3 3 3 3 3 3 3 3 3 3 3 2 2 2 1 1 1 0 -0 -0 -1 -1 -1 -1 -1 -1 -1 -1 -1 -1 -1 -1 -1 -1 -1
2 3 3 3 3 3 3 3 2 2 2 2 2 2 2 3 2 2 2 2 1 1 1 0 0 -0 -1 -1 -1 -2 -2 -2 -2 -2 -2 -2 -2 -2 -2 -2 -2 -2 -2
2 2 2 2 2 2 2 2 2 2 2 2 2 2 2 2 2 2 2 1 1 0 0 -0 -1 -1 -1 -2 -2 -2 -2 -2 -3 -3 -3 -2 -2 -3 -3 -3 -3 -3 -2
2 2 2 2 1 1 1 1 1 1 1 2 2 2 2 2 2 2 1 1 0 -0 -1 -1 -1 -2 -2 -2 -2 -3 -2 -3 -3 -3 -3 -3 -3 -3 -3 -3 -3 -3 -3
1 1 1 1 1 1 1 1 1 1 1 1 1 1 1 1 1 1 0 -0 -0 -1 -1 -1 -2 -2 -2 -2 -2 -3 -3 -3 -3 -3 -3 -3 -3 -3 -3 -3 -3 -3 -3
1 0 0 0 0 0 0 0 0 1 1 1 1 1 0 0 0 0 -0 -0 -1 -1 -2 -2 -2 -2 -2 -2 -3 -3 -3 -3 -3 -3 -3 -3 -4 -4 -4 -4 -4 -4 -4
0 0 -0 -0 -0 -0 -0 -0 -0 0 0 0 0 -0 -0 -0 -0 -0 -1 -1 -1 -2 -2 -2 -2 -2 -2 -3 -3 -3 -3 -3 -3 -3 -4 -4 -4 -4 -4 -4 -4 -4 -4
-0 -0 -0 -0 -1 -1 -1 -1 -1 -1 -1 -1 -1 -1 -1 -1 -1 -1 -1 -2 -2 -2 -2 -2 -2 -2 -3 -3 -3 -3 -3 -3 -4 -4 -4 -4 -4 -4 -4 -4 -4 -4 -4
-1 -1 -1 -1 -1 -1 -1 -1 -1 -1 -1 -1 -1 -1 -1 -1 -2 -2 -2 -2 -2 -2 -2 -2 -3 -3 -3 -3 -3 -3 -4 -4 -4 -4 -4 -4 -4 -4 -4 -4 -4 -4 -4
-1 -1 -1 -2 -2 -2 -2 -2 -2 -2 -2 -2 -2 -2 -2 -2 -2 -2 -2 -2 -2 -3 -3 -3 -3 -3 -3 -3 -4 -4 -4 -4 -4 -4 -4 -4 -4 -4 -4 -4 -4 -4 -5
-2 -2 -2 -2 -2 -2 -3 -3 -3 -3 -2 -2 -2 -2 -3 -3 -3 -3 -3 -3 -3 -3 -3 -3 -3 -3 -3 -4 -4 -4 -4 -4 -4 -4 -4 -4 -4 -4 -4 -5 -5 -5 -5
-2 -2 -2 -3 -3 -3 -3 -3 -3 -3 -3 -3 -3 -3 -3 -3 -3 -3 -4 -4 -4 -4 -4 -4 -4 -4 -4 -4 -4 -4 -4 -4 -4 -4 -4 -4 -5 -5 -5 -5 -5 -5 -5
-3 -3 -3 -3 -3 -3 -3 -4 -4 -4 -4 -4 -4 -4 -4 -4 -4 -4 -4 -4 -4 -4 -4 -4 -4 -4 -4 -4 -4 -4 -4 -5 -5 -5 -5 -5 -5 -5 -5 -5 -5 -5 -6
-3 -3 -4 -4 -4 -4 -4 -4 -4 -4 -4 -4 -4 -4 -5 -5 -5 -5 -5 -5 -5 -5 -5 -5 -5 -5 -5 -5 -5 -5 -5 -5 -5 -5 -5 -5 -5 -5 -6 -6 -6 -6 -6
-4 -4 -4 -4 -4 -4 -4 -5 -5 -5 -5 -5 -5 -5 -5 -5 -5 -5 -5 -5 -5 -5 -5 -5 -5 -5 -5 -5 -5 -5 -5 -5 -5 -6 -6 -6 -6 -6 -6 -6 -6 -7 -7
Wind_Speed
3 3 3 3 3 4 5 6 7 7 8 9 9 9 8 8 8 8 7 7 7 6 5 5 5 4 3 3 3 3 4 4 5 1 1 2 3 3 3 2 3 3 4
3 3 3 3 3 4 5 6 6 7 7 8 9 8 8 8 8 8 8 8 7 7 7 6 5 4 4 3 3 3 3 4 4 3 2 2 2 3 3 3 2 3 3
4 4 3 3 3 4 4 5 5 6 6 7 8 9 8 8 8 7 8 7 7 7 7 7 6 6 5 4 3 3 3 2 2 3 2 2 2 2 3 2 2 2 2
4 4 4 4 3 3 3 4 4 5 6 6 7 7 8 8 7 7 7 7 6 5 5 5 5 5 5 4 4 4 3 3 3 3 3 3 2 3 3 3 3 2 1
5 4 4 4 3 3 3 4 4 5 5 6 7 7 7 6 6 8 7 7 7 6 5 4 4 4 3 3 3 4 4 4 4 4 3 3 3 4 4 4 3 3 2
5 5 4 3 3 3 3 4 4 5 5 6 6 7 7 5 9 10 8 7 7 7 6 5 4 5 5 4 3 3 3 4 4 4 4 5 5 5 4 4 4 4 3
6 5 4 3 3 3 3 4 5 5 5 6 6 6 7 8 11 11 10 7 7 6 6 6 4 4 5 4 5 4 3 1 2 4 4 5 5 5 6 6 5 4 2
6 6 4 4 3 3 3 4 5 5 5 5 6 6 7 8 11 11 11 7 6 6 6 6 5 5 5 5 5 4 3 2 1 2 3 2 2 3 5 5 5 4 3
6 6 5 4 4 3 4 4 4 5 5 5 6 7 7 8 11 11 10 6 6 6 5 5 6 6 7 7 6 5 4 3 3 3 2 2 3 4 5 5 5 4 3
7 7 6 4 4 4 4 4 4 4 5 5 5 6 7 7 11 11 11 6 6 5 5 5 7 7 9 9 6 6 5 4 4 4 4 4 4 5 5 4 4 4 2
7 6 5 4 4 3 3 3 4 4 4 4 5 5 6 7 10 12 11 6 6 6 5 5 6 9 10 9 7 5 5 5 4 4 3 3 3 3 3 2 2 2 2
6 5 4 3 2 2 3 3 4 5 5 5 5 5 4 5 7 10 12 10 8 6 6 5 6 10 10 10 7 6 8 6 4 4 3 3 3 3 2 2 3 3 2
6 5 4 3 2 2 3 4 4 5 5 5 5 5 4 4 6 10 11 11 11 6 5 7 8 9 9 8 9 9 8 5 5 5 4 4 3 3 4 3 3 4 4
5 5 4 2 2 2 2 3 4 5 5 5 5 5 4 5 5 6 6 7 9 7 5 7 9 9 7 6 7 7 6 5 5 5 4 4 4 4 4 4 3 3 2
5 4 4 3 2 2 2 3 4 5 5 5 5 5 6 6 7 10 8 6 7 6 6 5 5 6 6 6 6 6 6 6 6 5 5 5 5 5 4 4 3 4 3
4 4 3 2 2 1 1 1 2 4 5 6 5 5 5 5 7 10 11 10 11 12 8 6 6 7 7 7 7 7 7 7 6 6 6 6 6 6 5 5 5 5 5
4 4 3 2 2 2 1 1 1 1 3 4 6 6 6 6 8 9 10 11 12 13 7 6 7 7 7 7 7 7 7 7 6 6 6 6 6 6 6 6 6 6 6
4 3 3 3 2 2 2 2 2 2 1 1 3 5 6 7 8 9 9 8 7 8 6 6 6 6 6 6 7 7 6 6 6 7 7 7 7 7 7 7 7 7 7
4 3 3 3 2 2 2 2 1 2 2 1 1 2 4 5 6 7 8 5 6 6 6 6 6 6 6 6 6 6 6 6 7 7 7 7 7 7 8 8 7 9 8
4 4 3 3 2 2 2 2 2 2 2 2 2 2 2 2 3 4 4 4 4 5 5 6 6 6 6 6 6 6 6 6 7 7 7 7 7 8 8 9 8 8 8
4 3 3 3 2 2 2 2 2 2 2 2 2 2 3 3 3 4 4 4 4 4 5 5 5 5 6 5 5 6 7 6 6 7 7 7 7 7 7 8 8 8 8
3 3 3 3 3 2 2 2 2 2 2 2 1 2 3 2 2 3 3 3 4 4 4 4 4 4 4 5 6 6 7 7 7 7 7 7 7 7 7 7 8 8 8
3 3 3 3 3 3 3 2 2 2 2 2 2 1 1 2 2 2 3 3 3 3 3 3 3 4 4 4 5 5 6 6 6 7 7 7 7 7 8 8 9 9 9
3 3 3 3 3 2 2 2 2 2 2 2 2 2 2 2 2 2 2 2 2 2 3 3 4 4 5 4 5 6 7 7 7 7 8 7 7 7 8 8 9 10 10
3 3 3 3 3 2 2 2 2 2 2 2 2 2 2 2 2 2 2 2 2 2 3 3 3 4 5 6 6 6 8 9 9 8 8 7 8 8 8 8 8 8 9
3 3 3 3 2 2 2 2 2 2 2 2 2 2 2 2 2 2 2 2 2 3 3 3 4 5 5 6 7 8 9 10 11 12 9 7 8 8 8 8 9 9 9
Wind_Direction
290 275 263 250 239 226 221 219 213 203 194 190 184 180 178 177 173 170 170 171 177 173 174 178 178 176 184 190 197 212 224 232 242 223 159 161 175 167 147 123 106 103 98
315 294 277 255 232 227 223 215 204 197 189 183 177 174 173 175 175 170 168 174 177 175 173 173 173 173 184 190 195 205 214 220 229 225 184 169 178 170 153 136 110 92 95
323 309 291 264 235 223 222 212 197 187 179 176 171 171 171 172 171 171 171 173 178 177 176 178 176 179 186 186 191 196 200 207 221 208 183 162 159 163 154 137 132 112 95
320 308 291 276 254 235 216 203 191 179 171 170 169 167 166 168 165 161 163 165 167 165 168 170 173 183 186 184 187 190 190 194 193 190 180 171 167 164 175 174 169 158 138
316 304 294 292 274 237 207 191 181 174 167 164 163 161 160 160 162 161 161 162 160 155 152 158 164 161 163 182 188 186 190 196 193 191 187 178 178 178 190 179 176 159 158
308 298 292 285 270 232 202 183 174 173 167 161 165 162 160 163 161 163 159 157 158 161 161 162 158 160 166 172 175 183 205 208 200 198 203 203 199 192 178 175 168 171 185
310 303 293 276 258 233 202 185 179 175 169 166 166 167 168 164 165 166 163 160 162 168 170 168 165 167 172 169 161 159 169 202 237 223 219 215 201 187 177 180 183 189 174
314 309 301 285 264 232 205 195 190 181 177 174 171 171 168 168 168 168 163 161 163 168 172 174 172 175 177 172 167 163 157 149 171 215 223 216 204 185 184 179 164 142 116
316 312 302 286 264 237 217 204 198 188 181 179 176 174 173 171 172 171 168 160 164 167 169 178 180 185 175 176 176 170 165 146 111 106 98 116 133 158 161 149 155 166 172
318 311 303 287 265 248 230 212 202 192 187 177 177 180 178 178 178 180 179 170 171 170 174 182 193 194 182 185 190 185 186 173 155 140 129 123 131 140 157 175 176 180 165
313 307 299 286 267 249 228 207 194 188 182 179 177 182 186 185 184 189 189 183 179 176 181 188 191 192 193 194 200 200 190 173 167 161 155 150 145 141 145 148 155 169 174
315 310 305 293 271 233 206 192 187 184 182 182 182 183 190 189 194 195 198 198 189 185 190 192 189 190 197 197 198 192 182 177 173 174 179 180 172 160 139 122 106 92 76
316 316 313 302 278 232 206 189 185 188 189 189 190 193 193 192 196 202 203 201 198 195 192 189 187 191 196 199 199 193 186 189 187 191 195 192 177 152 140 129 119 108 94
318 320 321 311 290 245 216 199 197 196 196 197 198 200 195 195 197 195 196 196 198 197 184 187 191 194 195 196 195 197 197 199 201 207 199 181 164 162 172 171 172 168 168
323 324 320 312 294 271 243 225 216 218 216 207 204 200 197 207 208 198 189 188 185 181 165 169 180 185 194 196 199 199 197 197 206 207 198 190 185 185 185 180 182 185 199
324 325 323 320 315 298 270 266 249 239 233 230 222 212 216 219 202 203 203 197 188 177 172 184 193 198 202 203 203 204 204 205 206 203 203 201 198 195 192 187 192 203 212
320 322 321 315 309 299 283 259 266 262 231 227 221 219 219 211 205 204 204 198 192 183 188 196 202 204 206 207 209 210 210 206 199 201 205 204 202 200 198 198 200 207 215
323 323 321 315 308 300 291 275 255 241 238 254 236 229 225 216 207 203 199 191 196 193 198 202 205 206 207 209 210 212 211 204 200 204 207 205 203 203 205 208 208 210 213
324 326 324 319 313 307 300 287 270 258 247 247 255 237 226 216 203 199 193 200 202 204 205 208 209 207 207 208 210 210 209 208 205 204 207 206 206 206 212 214 214 213 214
322 327 327 319 316 313 304 291 278 267 253 238 236 235 210 195 193 191 196 204 211 215 214 215 213 210 208 208 207 207 210 212 209 210 211 209 208 209 215 215 215 214 215
319 320 322 314 307 301 295 284 276 269 260 251 249 238 222 214 210 204 204 208 214 220 222 220 218 214 211 208 207 209 211 214 213 212 211 210 208 211 214 216 216 217 218
312 313 316 314 311 308 306 297 285 274 268 267 275 260 233 226 218 219 218 219 223 222 221 221 221 218 215 212 210 211 214 216 214 211 212 211 210 212 212 213 214 214 216
306 308 311 314 314 315 312 308 303 294 288 283 274 265 252 240 235 235 233 230 229 228 224 225 230 229 225 222 218 216 219 220 216 211 211 212 212 212 213 214 214 214 216
306 307 308 311 313 312 312 314 315 311 305 299 292 280 270 262 256 254 255 252 242 235 230 231 234 235 229 227 225 224 227 228 221 217 213 215 214 213 213 215 216 218 219
303 304 304 304 305 304 307 311 311 308 305 301 298 294 289 281 275 275 271 266 261 255 250 247 245 244 241 238 236 235 234 232 227 223 218 218 220 218 217 217 217 218 218
296 298 298 297 295 295 295 295 297 298 295 294 293 290 285 280 278 279 278 274 270 264 259 255 251 251 252 248 247 248 247 243 237 231 225 223 223 222 219 222 221 220 221
Height
1467 1467 1468 1468 1468 1469 1470 1470 1471 1472 1473 1475 1477 1479 1482 1484 1486 1488 1490 1491 1493 1494 1495 1496 1496 1497 1497 1497 1497 1497 1498 1499 1500 1499 1500 1500 1501 1501 1501 1502 1502 1502 1503
1464 1464 1463 1463 1464 1464 1465 1466 1466 1467 1468 1470 1472 1474 1476 1478 1480 1482 1484 1486 1488 1489 1490 1490 1491 1491 1492 1492 1492 1493 1493 1494 1495 1495 1495 1496 1496 1497 1498 1498 1499 1500 1500
1461 1460 1460 1460 1460 1460 1461 1461 1461 1462 1463 1465 1466 1469 1471 1473 1475 1477 1479 1481 1483 1484 1485 1485 1486 1486 1487 1487 1488 1488 1489 1490 1490 1491 1491 1492 1492 1493 1494 1495 1496 1497 1497
1458 1457 1457 1456 1456 1456 1457 1457 1457 1458 1459 1461 1462 1464 1466 1469 1470 1472 1475 1477 1478 1479 1479 1480 1481 1482 1482 1483 1483 1484 1485 1485 1486 1487 1488 1488 1489 1490 1491 1492 1493 1494 1495
1455 1454 1453 1453 1452 1452 1453 1453 1453 1454 1455 1457 1459 1460 1462 1464 1466 1468 1471 1472 1473 1474 1475 1476 1477 1477 1478 1479 1479 1480 1481 1481 1482 1483 1484 1484 1485 1486 1487 1488 1490 1491 1492
1452 1451 1450 1450 1449 1449 1449 1449 1450 1451 1452 1453 1455 1456 1458 1459 1462 1465 1466 1468 1469 1470 1471 1472 1473 1473 1474 1475 1476 1476 1477 1478 1479 1480 1480 1481 1481 1483 1484 1485 1487 1488 1489
1450 1448 1447 1446 1445 1445 1445 1445 1446 1447 1448 1449 1451 1452 1454 1456 1458 1461 1462 1464 1465 1466 1467 1468 1469 1470 1471 1471 1472 1472 1473 1474 1475 1476 1477 1477 1478 1479 1480 1482 1483 1485 1486
1447 1445 1444 1442 1442 1441 1441 1442 1443 1444 1445 1446 1447 1449 1451 1453 1455 1457 1458 1460 1461 1463 1464 1465 1466 1466 1467 1468 1468 1469 1470 1470 1471 1472 1473 1474 1475 1476 1478 1479 1481 1482 1483
1444 1442 1440 1439 1438 1438 1438 1439 1440 1441 1442 1443 1445 1446 1448 1449 1451 1453 1455 1456 1458 1459 1460 1461 1462 1463 1464 1464 1465 1466 1466 1467 1468 1469 1470 1471 1472 1473 1475 1476 1477 1479 1480
1441 1439 1438 1436 1436 1435 1435 1436 1437 1438 1439 1440 1441 1443 1445 1446 1448 1449 1451 1452 1454 1455 1456 1457 1459 1460 1460 1461 1462 1463 1464 1465 1465 1466 1467 1468 1469 1470 1472 1473 1475 1476 1477
1438 1436 1435 1434 1433 1433 1433 1433 1434 1435 1436 1437 1438 1440 1441 1443 1444 1446 1447 1449 1450 1452 1453 1454 1455 1456 1457 1458 1459 1460 1461 1462 1462 1463 1464 1465 1466 1467 1469 1470 1471 1473 1475
1435 1433 1432 1431 1430 1430 1430 1430 1431 1432 1432 1433 1435 1436 1438 1439 1441 1442 1444 1446 1447 1448 1449 1451 1452 1453 1454 1455 1456 1457 1458 1459 1460 1461 1462 1463 1463 1464 1466 1467 1468 1470 1471
1433 1431 1429 1428 1427 1427 1427 1427 1427 1428 1429 1430 1432 1433 1434 1436 1437 1439 1440 1442 1443 1444 1446 1447 1448 1450 1451 1452 1453 1454 1455 1456 1457 1458 1459 1460 1461 1462 1463 1464 1466 1467 1468
1430 1428 1426 1425 1424 1424 1424 1424 1424 1425 1426 1427 1428 1430 1431 1432 1433 1435 1436 1438 1439 1440 1442 1443 1445 1446 1447 1449 1450 1451 1452 1453 1454 1455 1456 1457 1458 1459 1460 1461 1463 1464 1465
1427 1425 1424 1423 1422 1421 1421 1421 1421 1422 1423 1424 1425 1426 1427 1428 1430 1431 1432 1434 1435 1437 1438 1439 1441 1442 1444 1445 1446 1447 1448 1449 1450 1452 1453 1454 1454 1456 1457 1458 1459 1461 1462
1426 1424 1422 1421 1420 1419 1418 1419 1419 1420 1420 1421 1422 1423 1424 1426 1427 1427 1429 1431 1432 1433 1434 1435 1437 1438 1440 1441 1442 1443 1444 1445 1446 1448 1449 1450 1451 1452 1453 1454 1456 1457 1458
1424 1422 1421 1419 1418 1417 1417 1416 1416 1417 1417 1418 1419 1419 1421 1422 1423 1424 1425 1427 1428 1429 1430 1431 1433 1434 1436 1437 1438 1439 1440 1441 1442 1443 1445 1446 1447 1448 1449 1450 1452 1453 1454
1423 1421 1419 1418 1417 1416 1415 1414 1414 1414 1414 1415 1416 1416 1417 1418 1419 1420 1422 1423 1424 1425 1426 1427 1428 1430 1431 1432 1433 1434 1435 1436 1437 1438 1440 1441 1442 1444 1445 1446 1447 1448 1450
1421 1419 1418 1416 1415 1414 1413 1412 1412 1412 1412 1412 1412 1413 1414 1414 1416 1417 1418 1419 1420 1421 1422 1423 1424 1425 1426 1427 1428 1429 1430 1431 1432 1433 1435 1436 1437 1438 1440 1441 1442 1443 1445
1420 1418 1416 1415 1413 1412 1411 1410 1410 1409 1409 1409 1409 1410 1410 1411 1412 1413 1414 1415 1416 1417 1418 1419 1419 1420 1421 1422 1423 1424 1425 1426 1427 1428 1429 1431 1432 1433 1434 1436 1437 1438 1439
1418 1416 1415 1413 1412 1410 1409 1408 1408 1407 1407 1406 1407 1407 1407 1408 1408 1409 1410 1411 1411 1412 1413 1414 1415 1416 1416 1417 1418 1419 1420 1420 1421 1422 1424 1425 1426 1427 1429 1430 1431 1432 1433
1416 1414 1413 1411 1410 1409 1407 1407 1406 1405 1404 1404 1404 1404 1404 1405 1405 1405 1406 1406 1407 1408 1408 1409 1410 1410 1411 1412 1413 1413 1414 1415 1416 1417 1418 1419 1420 1421 1423 1424 1425 1426 1427
1414 1412 1411 1409 1408 1406 1405 1404 1403 1403 1402 1402 1401 1401 1401 1401 1401 1402 1402 1402 1403 1403 1404 1404 1405 1405 1406 1406 1407 1408 1409 1409 1411 1412 1413 1413 1414 1415 1417 1418 1419 1420 1421
1411 1410 1408 1407 1406 1404 1403 1402 1401 1400 1400 1399 1399 1398 1398 1398 1398 1398 1398 1398 1398 1398 1399 1399 1399 1400 1400 1401 1401 1402 1403 1404 1405 1406 1407 1407 1408 1409 1410 1411 1413 1414 1415
1409 1407 1406 1405 1403 1402 1401 1400 1399 1398 1397 1396 1396 1395 1395 1395 1394 1394 1394 1394 1394 1394 1394 1394 1394 1395 1395 1395 1396 1396 1397 1398 1399 1399 1400 1401 1402 1403 1404 1405 1406 1407 1408
1406 1405 1403 1402 1401 1400 1399 1398 1397 1396 1395 1394 1393 1392 1392 1391 1391 1390 1390 1390 1390 1389 1389 1389 1390 1390 1390 1390 1390 1391 1391 1392 1392 1393 1394 1395 1395 1396 1397 1398 1399 1400 1401